,,PA_Meas_PMT16A,,PR_Meas_QMR101_102,,RH_Meas_QMH101,,SR_Meas_QMS101,,TA_Meas_QMH101,,GenWind,,GenWind,
time,status,PA,status,PR,status,RH,status,SR,status,TA,status,DirAvg,status,SpdAvg,
2017-01-07, 21:04:04,VALID,913.675,VALID,0,VALID,80.6862,VALID,208.114,VALID,23.637,VALID,253,VALID,0.777734,
2017-01-07, 21:05:04,VALID,913.595,VALID,0,VALID,81.7154,VALID,274.512,VALID,23.5785,VALID,279,VALID,0.657031,
2017-01-07, 21:06:04,VALID,913.577,VALID,0,VALID,78.2315,VALID,314.588,VALID,23.3638,VALID,256,VALID,3.38203,
2017-01-07, 21:07:04,VALID,913.622,VALID,0,VALID,84.8562,VALID,380.986,VALID,23.268,VALID,78,VALID,0.714453,
2017-01-07, 21:08:04,VALID,913.763,VALID,0,VALID,81.1894,VALID,387.433,VALID,23.1899,VALID,260,VALID,1.53867,
2017-01-07, 21:09:04,VALID,913.718,VALID,0,VALID,80.9531,VALID,579.752,VALID,22.8972,VALID,263,VALID,3.04727,
2017-01-07, 21:10:04,VALID,913.602,VALID,0.2,VALID,81.0826,VALID,341.341,VALID,22.7003,VALID,253,VALID,2.49727,
2017-01-07, 21:11:04,VALID,913.545,VALID,0,VALID,84.4827,VALID,715.128,VALID,22.585,VALID,301,VALID,0.113672,
2017-01-07, 21:12:04,VALID,913.579,VALID,0,VALID,84.8258,VALID,384.639,VALID,22.5264,VALID,251,VALID,0.366016,
2017-01-07, 21:13:04,VALID,913.537,VALID,0,VALID,84.4065,VALID,359.283,VALID,22.5655,VALID,270,VALID,1.69648,
2017-01-07, 21:14:04,VALID,913.497,VALID,0,VALID,84.1396,VALID,369.383,VALID,22.4874,VALID,293,VALID,3.24727,
2017-01-07, 21:15:04,VALID,913.434,VALID,0,VALID,82.8894,VALID,802.156,VALID,22.3899,VALID,249,VALID,1.58281,
2017-01-07, 21:16:04,VALID,913.328,VALID,0,VALID,80.671,VALID,776.262,VALID,22.4289,VALID,282,VALID,1.44961,
2017-01-07, 21:17:04,VALID,913.378,VALID,0,VALID,81.8831,VALID,304.488,VALID,22.5459,VALID,249,VALID,1.07109,
2017-01-07, 21:18:04,VALID,913.316,VALID,0,VALID,82.775,VALID,276.554,VALID,22.6045,VALID,269,VALID,1.04922,
2017-01-07, 21:19:04,VALID,913.189,VALID,0,VALID,83.141,VALID,317.918,VALID,22.6435,VALID,204,VALID,0.871484,
2017-01-07, 21:20:04,VALID,913.19,VALID,0,VALID,78.5288,VALID,413.111,VALID,22.6045,VALID,248,VALID,2.65469,
2017-01-07, 21:21:04,VALID,913.167,VALID,0,VALID,78.6508,VALID,311.687,VALID,22.6045,VALID,257,VALID,4.25469,
2017-01-07, 21:22:04,VALID,913.238,VALID,0,VALID,80.3889,VALID,281.496,VALID,22.5867,VALID,237,VALID,1.88477,
2017-01-07, 21:23:04,VALID,913.225,VALID,0,VALID,79.4436,VALID,317.918,VALID,22.585,VALID,275,VALID,2.42891,
2017-01-07, 21:24:04,VALID,913.29,VALID,0,VALID,80.084,VALID,431.269,VALID,22.624,VALID,259,VALID,1.5832,
2017-01-07, 21:25:04,VALID,913.246,VALID,0,VALID,83.7661,VALID,597.05,VALID,22.6825,VALID,240,VALID,0,
2017-01-07, 21:26:04,VALID,913.19,VALID,0,VALID,81.7993,VALID,417.194,VALID,22.7411,VALID,238,VALID,1.4418,
2017-01-07, 21:27:04,VALID,913.087,VALID,0,VALID,79.7333,VALID,367.879,VALID,22.6257,VALID,261,VALID,3.26445,
2017-01-07, 21:28:04,VALID,913.04,VALID,0,VALID,79.6037,VALID,713.302,VALID,22.5086,VALID,274,VALID,3.9457,
2017-01-07, 21:29:04,VALID,913.024,VALID,0,VALID,81.3723,VALID,662.912,VALID,22.4289,VALID,260,VALID,4.95117,
2017-01-07, 21:30:04,VALID,912.967,VALID,0,VALID,80.8844,VALID,363.366,VALID,22.4094,VALID,260,VALID,2.65547,
2017-01-07, 21:31:04,VALID,912.974,VALID,0,VALID,82.8513,VALID,721.038,VALID,22.4874,VALID,258,VALID,0.549609,
2017-01-07, 21:32:04,VALID,912.956,VALID,0,VALID,82.9733,VALID,706.64,VALID,22.7233,VALID,245,VALID,0.0890625,
2017-01-07, 21:33:04,VALID,912.943,VALID,0,VALID,81.6315,VALID,664.416,VALID,22.9753,VALID,276,VALID,1.49258,
2017-01-07, 21:34:04,VALID,912.975,VALID,0,VALID,81.2809,VALID,693.425,VALID,23.1136,VALID,240,VALID,1.01875,
2017-01-07, 21:35:04,VALID,912.975,VALID,0,VALID,80.5109,VALID,691.276,VALID,23.1917,VALID,244,VALID,1.5168,
2017-01-07, 21:36:04,VALID,912.951,VALID,0,VALID,80.7548,VALID,743.17,VALID,23.3869,VALID,267,VALID,0.375,
2017-01-07, 21:37:04,VALID,912.945,VALID,0,VALID,79.6647,VALID,745.964,VALID,23.543,VALID,230,VALID,2.12578,
2017-01-07, 21:38:04,VALID,912.883,VALID,0,VALID,77.4615,VALID,764.014,VALID,23.7187,VALID,261,VALID,2.20273,
2017-01-07, 21:39:04,VALID,912.839,VALID,0,VALID,75.914,VALID,755.526,VALID,23.756,VALID,253,VALID,2.46602,
2017-01-07, 21:40:04,VALID,912.763,VALID,0,VALID,76.3028,VALID,737.476,VALID,23.8358,VALID,234,VALID,1.67891,
2017-01-07, 21:41:04,VALID,912.756,VALID,0,VALID,78.2467,VALID,742.741,VALID,24.1092,VALID,258,VALID,0.878516,
2017-01-07, 21:42:04,VALID,912.727,VALID,0,VALID,73.5888,VALID,298.579,VALID,24.3435,VALID,231,VALID,0.155859,
2017-01-07, 21:43:04,VALID,912.704,VALID,0,VALID,73.4516,VALID,386.896,VALID,24.4002,VALID,263,VALID,0.896094,
2017-01-07, 21:44:04,VALID,912.742,VALID,0,VALID,74.3893,VALID,693.533,VALID,24.3416,VALID,235,VALID,0.528516,
2017-01-07, 21:45:04,VALID,912.733,VALID,0,VALID,75.7234,VALID,177.278,VALID,24.3611,VALID,257,VALID,0.326172,
2017-01-07, 22:49:04,VALID,912.512,VALID,0,INVALID,126,VALID,179.964,VALID,20.3838,VALID,306,VALID,1.18477,
2017-01-07, 22:50:04,VALID,912.554,VALID,0,INVALID,125.52,VALID,162.773,VALID,20.5789,VALID,311,VALID,1.16133,
2017-01-07, 22:55:04,VALID,912.548,VALID,0,INVALID,125.047,VALID,154.93,VALID,20.7755,VALID,152,VALID,0,
2017-01-07, 22:56:04,VALID,912.58,VALID,0,INVALID,124.955,VALID,155.038,VALID,20.7934,VALID,240,VALID,1.75078,
2017-01-07, 22:58:04,VALID,912.567,VALID,0,INVALID,125.169,VALID,167.716,VALID,20.7349,VALID,208,VALID,1.31172,
2017-01-07, 22:59:04,VALID,912.522,VALID,0,INVALID,125.055,VALID,178.997,VALID,20.7544,VALID,98,VALID,0.729297,
2017-01-07, 23:04:04,VALID,912.622,VALID,0,INVALID,124.567,VALID,168.36,VALID,20.8519,VALID,216,VALID,2.72227,
2017-01-07, 23:05:04,VALID,912.692,VALID,0,INVALID,124.582,VALID,202.956,VALID,20.891,VALID,51,VALID,0.910156,
2017-01-07, 23:06:04,VALID,912.571,VALID,0,INVALID,124.589,VALID,210.047,VALID,20.8714,VALID,97,VALID,1.94609,
2017-01-07, 23:07:04,VALID,912.648,VALID,0,INVALID,124.407,VALID,248.082,VALID,20.93,VALID,209,VALID,0.204297,
2017-01-07, 23:08:04,VALID,912.632,VALID,0,INVALID,124.437,VALID,221.544,VALID,20.93,VALID,71,VALID,0.973437,
2017-01-07, 23:09:04,VALID,912.625,VALID,0,INVALID,124.475,VALID,240.668,VALID,20.891,VALID,188,VALID,0.123047,
2017-01-07, 23:10:04,VALID,912.661,VALID,0,INVALID,124.254,VALID,233.899,VALID,20.9901,VALID,217,VALID,0,
2017-01-07, 23:11:04,VALID,912.705,VALID,0,INVALID,123.98,VALID,250.875,VALID,21.086,VALID,213,VALID,0.160156,
2017-01-07, 23:12:04,VALID,912.693,VALID,0,INVALID,123.995,VALID,217.891,VALID,21.086,VALID,258,VALID,0,
2017-01-07, 23:13:04,VALID,912.58,VALID,0,INVALID,124.041,VALID,202.741,VALID,21.1055,VALID,64,VALID,1.74805,
2017-01-07, 23:14:04,VALID,912.624,VALID,0,INVALID,124.018,VALID,205.32,VALID,21.1445,VALID,152,VALID,0.332812,
2017-01-07, 23:15:04,VALID,912.669,VALID,0,INVALID,124.086,VALID,230.998,VALID,21.125,VALID,250,VALID,1.01445,
2017-01-07, 23:16:04,VALID,912.628,VALID,0,INVALID,124.46,VALID,233.792,VALID,20.969,VALID,258,VALID,0.396094,
2017-01-07, 23:17:04,VALID,912.592,VALID,0,INVALID,123.873,VALID,219.287,VALID,21.1445,VALID,322,VALID,0,
2017-01-07, 23:18:04,VALID,912.594,VALID,0,INVALID,124.048,VALID,206.287,VALID,21.0665,VALID,236,VALID,0.30625,
2017-01-07, 23:19:04,VALID,912.626,VALID,0,INVALID,124.216,VALID,204.138,VALID,20.9901,VALID,259,VALID,0.102734,
2017-01-07, 23:20:04,VALID,912.637,VALID,0,INVALID,123.896,VALID,235.511,VALID,21.1071,VALID,54,VALID,0.839063,
2017-01-07, 23:21:04,VALID,912.667,VALID,0,INVALID,123.583,VALID,220.684,VALID,21.2632,VALID,49,VALID,0,
2017-01-07, 23:22:04,VALID,912.65,VALID,0,INVALID,123.545,VALID,209.94,VALID,21.3022,VALID,49,VALID,0,
2017-01-07, 23:23:04,VALID,912.591,VALID,0,INVALID,123.591,VALID,219.825,VALID,21.2616,VALID,49,VALID,0,
2017-01-07, 23:24:04,VALID,912.558,VALID,0,INVALID,123.438,VALID,208.114,VALID,21.3803,VALID,26,VALID,0.301562,
2017-01-07, 23:25:04,VALID,912.554,VALID,0,INVALID,123.492,VALID,187.162,VALID,21.3803,VALID,329,VALID,0,
2017-01-07, 23:26:04,VALID,912.549,VALID,0,INVALID,123.995,VALID,216.386,VALID,21.164,VALID,271,VALID,0,
2017-01-07, 23:27:04,VALID,912.563,VALID,0,INVALID,123.82,VALID,227.023,VALID,21.2226,VALID,287,VALID,0,
2017-01-07, 23:28:04,VALID,912.508,VALID,0,INVALID,123.751,VALID,331.026,VALID,21.2226,VALID,17,VALID,1.37109,
2017-01-07, 23:29:04,VALID,912.524,VALID,0,INVALID,123.842,VALID,246.255,VALID,21.1836,VALID,266,VALID,1.53164,
2017-01-07, 23:30:04,VALID,912.482,VALID,0,INVALID,124.018,VALID,215.42,VALID,21.1039,VALID,2,VALID,0.198437,
2017-01-07, 23:31:04,VALID,912.39,VALID,0,INVALID,123.98,VALID,229.387,VALID,21.1445,VALID,39,VALID,1.55234,
2017-01-07, 23:32:04,VALID,912.417,VALID,0,INVALID,123.941,VALID,254.528,VALID,21.1429,VALID,23,VALID,0.999609,
2017-01-07, 23:33:04,VALID,912.459,VALID,0,INVALID,123.576,VALID,244.429,VALID,21.2811,VALID,261,VALID,0.0621094,
2017-01-07, 23:34:04,VALID,912.489,VALID,0,INVALID,123.781,VALID,321.894,VALID,21.164,VALID,252,VALID,1.16094,
2017-01-07, 23:35:04,VALID,912.468,VALID,0,INVALID,123.621,VALID,261.834,VALID,21.2421,VALID,278,VALID,0.43125,
2017-01-07, 23:36:04,VALID,912.48,VALID,0,INVALID,123.233,VALID,204.783,VALID,21.4583,VALID,259,VALID,0,
2017-01-07, 23:37:04,VALID,912.557,VALID,0,INVALID,123.248,VALID,188.774,VALID,21.4778,VALID,205,VALID,0,
2017-01-07, 23:38:04,VALID,912.545,VALID,0,INVALID,123.698,VALID,176.096,VALID,21.3412,VALID,155,VALID,0,
2017-01-07, 23:39:04,VALID,912.602,VALID,0,INVALID,123.728,VALID,170.831,VALID,21.3201,VALID,133,VALID,0,
2017-01-07, 23:40:04,VALID,912.589,VALID,0,INVALID,123.873,VALID,165.244,VALID,21.2811,VALID,194,VALID,0.248047,
2017-01-07, 23:41:04,VALID,912.583,VALID,0,INVALID,124.201,VALID,182.435,VALID,21.2242,VALID,312,VALID,0.813281,
2017-01-07, 23:42:04,VALID,912.584,VALID,0,INVALID,124.17,VALID,199.948,VALID,21.125,VALID,342,VALID,0.269531,
2017-01-07, 23:43:04,VALID,912.577,VALID,0,INVALID,123.941,VALID,174.914,VALID,21.1836,VALID,41,VALID,0,
2017-01-07, 23:44:04,VALID,912.553,VALID,0,INVALID,123.903,VALID,169.005,VALID,21.2031,VALID,101,VALID,0.00117188,
2017-01-07, 23:48:04,VALID,912.71,VALID,0,INVALID,124.193,VALID,161.914,VALID,21.008,VALID,126,VALID,0.009375,
2017-01-07, 23:50:04,VALID,912.694,VALID,0,INVALID,124.178,VALID,164.815,VALID,21.0275,VALID,9,VALID,0.114453,
2017-01-07, 23:51:04,VALID,912.678,VALID,0,INVALID,123.957,VALID,170.294,VALID,21.1445,VALID,20,VALID,0,
2017-01-07, 23:54:04,VALID,912.78,VALID,0,INVALID,124.628,VALID,175.237,VALID,20.9495,VALID,230,VALID,0.343359,
